Delaware, OH

5:36 PM EDT on July 25, 2016 (GMT -0400)
Delaware Municipal

Weather History for KDLZ - February, 2013

Change the Weather History Date:

Sunday, February 3, 2013

  Actual Average Record
Temperature  
Mean Temperature 18 °F -  
Max Temperature 23 °F 36 °F 57 °F (2016)
Min Temperature 14 °F 17 °F -12 °F (1985)
Degree Days  
Heating Degree Days 46    
Moisture  
Dew Point 14 °F    
Average Humidity 83    
Maximum Humidity 93    
Minimum Humidity 68    
Precipitation  
Precipitation 0.00 in - - ()
Sea Level Pressure  
Sea Level Pressure 29.95 in    
Wind  
Wind Speed 5 mph (West)    
Max Wind Speed 14 mph    
Max Gust Speed 20 mph    
Visibility 7 miles    
Events Snow    
Averages and records for this station are not official NWS values.
T = Trace of Precipitation, MM = Missing Value Source: NWS Daily Summary

Daily Weather History Graph

Daily Weather History Graph

Search for Another Location

Airport or City:

Trip Planner

Search our weather history database for the weather conditions in past years. The results will help you decide how hot, cold, wet, or windy it might be!

Date:

Astronomy

Feb. 03, 2013 Rise Set
Actual Time 7:39 AM EST 5:53 PM EST
Civil Twilight 7:10 AM EST 6:22 PM EST
Nautical Twilight 6:38 AM EST 6:54 PM EST
Astronomical Twilight 6:06 AM EST 7:26 PM EST
Moon 1:05 AM EST (2/3) 11:30 AM EST (2/3)
Length of Visible Light 11h 11m
Length of Day
10h 14m
Waning Gibbous, 49% of the Moon is Illuminated
Feb 3
Waning Gibbous
Feb 10
New
Feb 17
First Quarter
Feb 25
Full
Mar 4
Last Quarter

Hourly Weather History & Observations

Time (EST) Temp. Windchill Dew Point Humidity Pressure Visibility Wind Dir Wind Speed Gust Speed Precip Events Conditions
12:04 AM 23.0 °F - 21.2 °F 93% 29.98 in 5.0 mi Calm Calm - N/A Snow Light Snow
12:24 AM 23.0 °F 15.8 °F 21.2 °F 93% 29.97 in 5.0 mi West 5.8 mph - N/A Snow Light Snow
12:44 AM 23.0 °F 17.0 °F 21.2 °F 93% 29.96 in 4.0 mi West 4.6 mph - N/A Snow Light Snow
1:04 AM 23.0 °F 18.4 °F 21.2 °F 93% 29.96 in 5.0 mi West 3.5 mph - N/A Snow Light Snow
1:24 AM 23.0 °F 17.0 °F 21.2 °F 93% 29.95 in 7.0 mi West 4.6 mph - N/A Snow Light Snow
1:44 AM 23.0 °F 15.8 °F 19.4 °F 86% 29.95 in 5.0 mi West 5.8 mph - N/A Snow Light Snow
2:04 AM 23.0 °F 15.8 °F 19.4 °F 86% 29.95 in 5.0 mi NNW 5.8 mph - N/A Snow Light Snow
2:23 AM 21.2 °F 13.6 °F 17.6 °F 86% 29.95 in 7.0 mi NW 5.8 mph - N/A Snow Light Snow
2:44 AM 21.2 °F 14.9 °F 17.6 °F 86% 29.95 in 7.0 mi NNW 4.6 mph - N/A Snow Light Snow
3:04 AM 19.4 °F 14.3 °F 17.6 °F 93% 29.94 in 7.0 mi NNW 3.5 mph - N/A Snow Light Snow
3:23 AM 19.4 °F - 15.8 °F 86% 29.93 in 10.0 mi Calm Calm - N/A Snow Light Snow
3:44 AM 19.4 °F - 15.8 °F 86% 29.93 in 10.0 mi Calm Calm - N/A   Overcast
4:04 AM 19.4 °F - 15.8 °F 86% 29.92 in 10.0 mi Calm Calm - N/A   Overcast
4:23 AM 19.4 °F - 15.8 °F 86% 29.92 in 7.0 mi Calm Calm - N/A Snow Light Snow
4:44 AM 19.4 °F - 14.0 °F 80% 29.91 in 10.0 mi Calm Calm - N/A   Overcast
5:04 AM 19.4 °F - 15.8 °F 86% 29.90 in 4.0 mi Calm Calm - N/A Snow Light Snow
5:23 AM 19.4 °F 14.3 °F 14.0 °F 80% 29.90 in 4.0 mi NNW 3.5 mph - N/A Snow Light Snow
5:44 AM 17.6 °F - 15.8 °F 93% 29.90 in 4.0 mi Calm Calm - N/A Snow Light Snow
6:04 AM 17.6 °F - 15.8 °F 93% 29.90 in 4.0 mi Calm Calm - N/A Snow Light Snow
6:23 AM 17.6 °F - 15.8 °F 93% 29.90 in 4.0 mi Calm Calm - N/A Snow Light Snow
6:44 AM 17.6 °F - 15.8 °F 93% 29.89 in 4.0 mi Calm Calm - N/A Snow Light Snow
7:04 AM 17.6 °F - 15.8 °F 93% 29.89 in 5.0 mi Calm Calm - N/A Snow Light Snow
7:24 AM 17.6 °F 12.3 °F 15.8 °F 93% 29.89 in 7.0 mi North 3.5 mph - N/A Snow Light Snow
7:44 AM 17.6 °F 12.3 °F 15.8 °F 93% 29.90 in 7.0 mi NW 3.5 mph - N/A Snow Light Snow
8:04 AM 17.6 °F 12.3 °F 15.8 °F 93% 29.90 in 5.0 mi NNW 3.5 mph - N/A Snow Light Snow
8:24 AM 17.6 °F 10.7 °F 15.8 °F 93% 29.90 in 4.0 mi North 4.6 mph - N/A Snow Light Snow
8:44 AM 17.6 °F 12.3 °F 15.8 °F 93% 29.90 in 3.0 mi NNW 3.5 mph - N/A Snow Light Snow
9:04 AM 17.6 °F 12.3 °F 15.8 °F 93% 29.90 in 1.0 mi NNW 3.5 mph - N/A Snow Light Snow
9:44 AM 19.4 °F 14.3 °F 14.0 °F 80% 29.90 in 1.0 mi NNW 3.5 mph - N/A Snow Light Snow
10:04 AM 19.4 °F 14.3 °F 14.0 °F 80% 29.90 in 1.2 mi NW 3.5 mph - N/A Snow Light Snow
10:24 AM 19.4 °F - 14.0 °F 80% 29.91 in 1.5 mi Calm Calm - N/A Snow Light Snow
10:44 AM 19.4 °F 10.4 °F 14.0 °F 80% 29.91 in 1.5 mi NW 6.9 mph - N/A Snow Light Snow
11:04 AM 19.4 °F 11.5 °F 15.8 °F 86% 29.92 in 1.2 mi NW 5.8 mph - N/A Snow Light Snow
11:24 AM 19.4 °F 11.5 °F 15.8 °F 86% 29.92 in 1.2 mi NW 5.8 mph - N/A Snow Light Snow
11:44 AM 19.4 °F 11.5 °F 15.8 °F 86% 29.91 in 1.8 mi NW 5.8 mph - N/A Snow Light Snow
12:03 PM 21.2 °F 12.6 °F 15.8 °F 80% 29.91 in 3.0 mi WNW 6.9 mph - N/A Snow Light Snow
12:24 PM 21.2 °F 11.7 °F 15.8 °F 80% 29.91 in 1.8 mi NW 8.1 mph - N/A Snow Light Snow
12:44 PM 21.2 °F 10.9 °F 14.0 °F 74% 29.90 in 5.0 mi West 9.2 mph - N/A Snow Light Snow
1:04 PM 21.2 °F 10.1 °F 15.8 °F 80% 29.91 in 3.0 mi West 10.4 mph - N/A Snow Light Snow
1:24 PM 19.4 °F 6.0 °F 14.0 °F 80% 29.91 in 4.0 mi WNW 13.8 mph - N/A Snow Light Snow
1:44 PM 19.4 °F 7.2 °F 12.2 °F 74% 29.90 in 10.0 mi WNW 11.5 mph - N/A   Overcast
2:04 PM 19.4 °F 7.2 °F 12.2 °F 74% 29.91 in 10.0 mi West 11.5 mph - N/A   Overcast
2:24 PM 21.2 °F 10.9 °F 12.2 °F 68% 29.91 in 10.0 mi West 9.2 mph - N/A   Overcast
2:44 PM 21.2 °F 9.5 °F 12.2 °F 68% 29.91 in 10.0 mi WNW 11.5 mph - N/A   Overcast
3:04 PM 21.2 °F 10.9 °F 12.2 °F 68% 29.93 in 10.0 mi West 9.2 mph - N/A   Overcast
3:24 PM 19.4 °F 7.2 °F 12.2 °F 74% 29.93 in 7.0 mi West 11.5 mph 16.1 mph N/A Snow Light Snow
3:44 PM 19.4 °F 7.9 °F 10.4 °F 68% 29.95 in 10.0 mi West 10.4 mph - N/A   Overcast
4:04 PM 19.4 °F 6.6 °F 10.4 °F 68% 29.96 in 10.0 mi West 12.7 mph 18.4 mph N/A   Overcast
4:24 PM 19.4 °F 7.2 °F 10.4 °F 68% 29.96 in 10.0 mi West 11.5 mph - N/A   Overcast
4:44 PM 19.4 °F 6.6 °F 10.4 °F 68% 29.97 in 10.0 mi West 12.7 mph 19.6 mph N/A   Overcast
5:04 PM 19.4 °F 7.9 °F 10.4 °F 68% 29.98 in 10.0 mi West 10.4 mph 17.3 mph N/A   Overcast
5:24 PM 19.4 °F 7.9 °F 10.4 °F 68% 29.98 in 10.0 mi West 10.4 mph - N/A   Overcast
5:44 PM 19.4 °F 10.4 °F 12.2 °F 74% 29.99 in 10.0 mi WSW 6.9 mph - N/A   Overcast
6:04 PM 19.4 °F 9.5 °F 12.2 °F 74% 29.99 in 10.0 mi WSW 8.1 mph - N/A   Overcast
6:24 PM 19.4 °F 7.2 °F 12.2 °F 74% 30.01 in 10.0 mi WSW 11.5 mph 16.1 mph N/A   Overcast
6:44 PM 19.4 °F 9.5 °F 12.2 °F 74% 30.01 in 10.0 mi West 8.1 mph - N/A   Overcast
7:04 PM 19.4 °F 10.4 °F 12.2 °F 74% 30.01 in 10.0 mi WSW 6.9 mph - N/A   Overcast
7:24 PM 19.4 °F 8.6 °F 12.2 °F 74% 30.02 in 10.0 mi WSW 9.2 mph - N/A   Overcast
7:44 PM 19.4 °F 9.5 °F 12.2 °F 74% 30.03 in 10.0 mi West 8.1 mph - N/A   Overcast
8:04 PM 19.4 °F 10.4 °F 12.2 °F 74% 30.04 in 10.0 mi West 6.9 mph - N/A Snow Light Snow
8:24 PM 17.6 °F 9.3 °F 12.2 °F 79% 30.04 in 10.0 mi WSW 5.8 mph - N/A   Scattered Clouds
8:44 PM 17.6 °F 9.3 °F 12.2 °F 79% 30.04 in 10.0 mi WSW 5.8 mph - N/A   Clear
9:04 PM 15.8 °F 8.6 °F 12.2 °F 86% 30.04 in 10.0 mi WSW 4.6 mph - N/A   Clear
9:24 PM 15.8 °F 7.2 °F 12.2 °F 86% 30.05 in 10.0 mi WSW 5.8 mph - N/A   Scattered Clouds
9:44 PM 17.6 °F 9.3 °F 12.2 °F 79% 30.06 in 7.0 mi WSW 5.8 mph - N/A Snow Light Snow
10:04 PM 15.8 °F 8.6 °F 12.2 °F 86% 30.06 in 10.0 mi WSW 4.6 mph - N/A Snow Light Snow
10:24 PM 14.0 °F 6.5 °F 12.2 °F 93% 30.06 in 7.0 mi WSW 4.6 mph - N/A   Scattered Clouds
10:44 PM 14.0 °F 6.5 °F 12.2 °F 93% 30.06 in 10.0 mi WSW 4.6 mph - N/A   Clear
11:04 PM 14.0 °F 6.5 °F 12.2 °F 93% 30.06 in 10.0 mi WSW 4.6 mph - N/A   Clear
11:24 PM 14.0 °F 5.1 °F 12.2 °F 93% 30.07 in 10.0 mi WSW 5.8 mph - N/A   Clear
11:44 PM 14.0 °F 6.5 °F 10.4 °F 86% 30.07 in 10.0 mi SW 4.6 mph - N/A   Clear